Tracking 19709 objects as of 20-Jun-2019
HD Live streaming from Space Station
objects crossing your sky now

SL-8 R/B

Track SL-8 R/B now!
10-day predictions


NORAD ID: 10677
Int'l Code: 1978-019B
Perigee: 753.7 km
Apogee: 776.8 km
Inclination: 74.0 °
Period: 100.0 minutes
Semi major axis: 7136 km
RCS: 4.4372 m2 (large)
Launch date: February 17, 1978
Source: Commonwealth of Independent States (former USSR) (CIS)
Launch site: PLESETSK MISSILE AND SPACE COMPLEX (PKMTR)

Note: This is a ROCKET BODY
aabbcc
Your satellite tracking list
Your tracking list is empty




NASA's NSSDC Master Catalog

Two Line Element Set (TLE):
1 10677U 78019B   19169.89246793 +.00000001 +00000-0 +88696-5 0  9993
2 10677 074.0391 029.4638 0016151 282.6426 077.2923 14.40113140167567
Source of the keplerian elements: AFSPC